This is the latest recevied weather packets stored in our database for station/object ke5jzm-1. If no packets are shown the sender has not sent any weather packets the latest 10 day(s).
| Time | Temp. | Humidity | Pressure | Rain* | Wind** | Luminosity | Snow |
|---|---|---|---|---|---|---|---|
| 1777588525 | 24.44° C | 56% | 1010.9 hPa | 6.1 mm | - | 27 W/m² | - |
| 1777588465 | 25° C | 56% | 1010.9 hPa | 6.35 mm | - | 30 W/m² | - |
| 1777588406 | 24.44° C | 56% | 1010.8 hPa | 6.6 mm | - | 33 W/m² | - |
| 1777588345 | 24.44° C | 56% | 1010.7 hPa | 6.86 mm | - | 33 W/m² | - |
| 1777588286 | 25° C | 56% | 1010.7 hPa | 7.62 mm | - | 35 W/m² | - |
| 1777588225 | 25° C | 57% | 1010.6 hPa | 7.87 mm | - | 36 W/m² | - |
| 1777588166 | 25° C | 57% | 1010.5 hPa | 7.87 mm | - | 39 W/m² | - |
| 1777588105 | 25° C | 57% | 1010.5 hPa | 8.13 mm | - | 42 W/m² | - |
| 1777588046 | 25° C | 57% | 1010.4 hPa | 8.38 mm | - | 44 W/m² | - |
| 1777587986 | 25° C | 58% | 1010.4 hPa | 8.64 mm | - | 45 W/m² | - |
| 1777587926 | 25° C | 58% | 1010.5 hPa | 8.89 mm | - | 43 W/m² | - |
| 1777587866 | 25° C | 58% | 1010.5 hPa | 8.89 mm | - | 39 W/m² | - |
| 1777587806 | 25° C | 59% | 1010.5 hPa | 8.89 mm | - | 37 W/m² | - |
| 1777587745 | 25° C | 59% | 1010.5 hPa | 8.89 mm | - | 38 W/m² | - |
| 1777587686 | 25° C | 58% | 1010.5 hPa | 9.14 mm | - | 40 W/m² | - |
| 1777587623 | 25° C | 58% | 1010.4 hPa | 9.14 mm | - | 41 W/m² | - |
| 1777587560 | 25° C | 58% | 1010.4 hPa | 9.14 mm | - | 41 W/m² | - |
| 1777587497 | 25° C | 58% | 1010.3 hPa | 9.4 mm | - | 39 W/m² | - |
| 1777587434 | 25° C | 58% | 1010.4 hPa | 9.4 mm | - | 36 W/m² | - |
| 1777587374 | 25° C | 58% | 1010.4 hPa | 9.4 mm | - | 34 W/m² | - |
| 1777587314 | 25° C | 58% | 1010.4 hPa | 9.65 mm | - | 33 W/m² | - |
| 1777587253 | 25° C | 58% | 1010.4 hPa | 9.65 mm | - | 34 W/m² | - |
| 1777587194 | 25° C | 58% | 1010.4 hPa | 9.91 mm | - | 34 W/m² | - |
| 1777587133 | 25° C | 57% | 1010.3 hPa | 9.65 mm | - | 34 W/m² | - |
| 1777587071 | 25° C | 57% | 1010.4 hPa | 9.91 mm | - | 33 W/m² | - |
* Rain latest hour (hover to see other rain measurements)
** Current wind speed in m/s (hover to see current wind gust speed)